Concord, NC

4:27 PM EDT on October 21, 2017 (GMT -0400)
Concord Regional

Weather History for KJQF - March, 2014

Change the Weather History Date:

Wednesday, March 19, 2014

  Actual Average (KCLT) Record (KCLT)
Temperature  
Mean Temperature 44 °F -  
Max Temperature 50 °F 63 °F 86 °F (1945)
Min Temperature 37 °F 40 °F 21 °F (1902)
Degree Days  
Heating Degree Days 22    
Moisture  
Dew Point 38 °F    
Average Humidity 93    
Maximum Humidity 100    
Minimum Humidity 82    
Precipitation  
Precipitation 0.00 in - - ()
Sea Level Pressure  
Sea Level Pressure 30.14 in    
Wind  
Wind Speed 2 mph (North)    
Max Wind Speed 8 mph    
Max Gust Speed -    
Visibility 5 miles    
Events      
Averages and records for this station are not official NWS values.
T = Trace of Precipitation, MM = Missing Value Source: NWS Daily Summary

Daily Weather History Graph

Daily Weather History Graph

Search for Another Location

Airport or City:

Trip Planner

Search our weather history database for the weather conditions in past years. The results will help you decide how hot, cold, wet, or windy it might be!

Date:

Astronomy

Mar. 19, 2014 Rise Set
Actual Time 7:27 AM EDT 7:33 PM EDT
Civil Twilight 7:02 AM EDT 7:59 PM EDT
Nautical Twilight 6:32 AM EDT 8:28 PM EDT
Astronomical Twilight 6:03 AM EDT 8:58 PM EDT
Moon 10:43 PM EDT (3/19) 8:59 AM EDT (3/19)
Length of Visible Light 12h 56m
Length of Day
12h 05m
Waning Gibbous, 91% of the Moon is Illuminated
Mar 19
Waning Gibbous
Mar 23
Last Quarter
Mar 30
New
Apr 7
First Quarter
Apr 15
Full

Hourly Weather History & Observations

Time (EDT) Temp. Windchill Dew Point Humidity Pressure Visibility Wind Dir Wind Speed Gust Speed Precip Events Conditions
12:15 AM 39.2 °F - 37.4 °F 93% 30.19 in 2.5 mi Calm Calm - N/A   Overcast
12:35 AM 39.2 °F - 37.4 °F 93% 30.19 in 2.5 mi Calm Calm - N/A   Overcast
12:55 AM 39.2 °F - 37.4 °F 93% 30.19 in 3.0 mi Calm Calm - N/A   Overcast
1:15 AM 37.4 °F 33.8 °F 37.4 °F 100% 30.18 in 2.5 mi NNE 4.6 mph - N/A   Overcast
1:35 AM 37.4 °F - 37.4 °F 100% 30.19 in 3.0 mi Calm Calm - N/A   Overcast
1:55 AM 37.4 °F - 37.4 °F 100% 30.19 in 2.5 mi Calm Calm - N/A   Overcast
2:15 AM 37.4 °F 34.9 °F 37.4 °F 100% 30.21 in 2.5 mi NW 3.5 mph - N/A   Overcast
2:30 AM 37.4 °F 34.9 °F 37.4 °F 100% 30.21 in 2.0 mi NNW 3.5 mph - N/A   Drizzle
2:55 AM 37.4 °F 32.8 °F 37.4 °F 100% 30.20 in 3.0 mi North 5.8 mph - N/A   Light Drizzle
3:15 AM 37.4 °F 32.8 °F 37.4 °F 100% 30.19 in 3.0 mi North 5.8 mph - N/A   Light Drizzle
3:35 AM 37.4 °F 33.8 °F 37.4 °F 100% 30.19 in 4.0 mi North 4.6 mph - N/A   Overcast
3:55 AM 37.4 °F 32.8 °F 37.4 °F 100% 30.20 in 7.0 mi North 5.8 mph - N/A   Overcast
4:15 AM 37.4 °F 33.8 °F 35.6 °F 93% 30.19 in 5.0 mi North 4.6 mph - N/A   Drizzle
4:35 AM 37.4 °F 33.8 °F 35.6 °F 93% 30.18 in 10.0 mi North 4.6 mph - N/A   Overcast
4:55 AM 37.4 °F - 35.6 °F 93% 30.18 in 10.0 mi Calm Calm - N/A   Overcast
5:15 AM 37.4 °F 34.9 °F 35.6 °F 93% 30.18 in 10.0 mi NNE 3.5 mph - N/A   Overcast
5:30 AM 37.4 °F 34.9 °F 35.6 °F 93% 30.18 in 10.0 mi North 3.5 mph - N/A   Overcast
5:55 AM 37.4 °F 34.9 °F 35.6 °F 93% 30.19 in 10.0 mi North 3.5 mph - N/A   Overcast
6:15 AM 37.4 °F 34.9 °F 35.6 °F 93% 30.19 in 10.0 mi North 3.5 mph - N/A   Overcast
6:35 AM 37.4 °F 32.8 °F 35.6 °F 93% 30.19 in 10.0 mi North 5.8 mph - N/A   Overcast
6:57 AM 39.2 °F 33.6 °F 37.4 °F 93% 30.20 in 5.0 mi NNE 8.1 mph - N/A   Overcast
7:55 AM 37.4 °F 32.1 °F 37.4 °F 100% 30.19 in 2.0 mi NNE 6.9 mph - N/A   Overcast
8:52 AM 39.2 °F 35.9 °F 37.4 °F 93% 30.20 in 2.0 mi NNE 4.6 mph - N/A   Overcast
9:51 AM 39.2 °F 35.9 °F 37.4 °F 93% 30.20 in 3.0 mi NNE 4.6 mph - N/A   Overcast
10:51 AM 41.0 °F - 39.2 °F 93% 30.19 in 7.0 mi Calm Calm - N/A   Overcast
11:52 AM 42.8 °F - 39.2 °F 87% 30.19 in 7.0 mi Calm Calm - N/A   Overcast
12:57 PM 44.6 °F - 41.0 °F 87% 30.15 in 7.0 mi Calm Calm - N/A   Overcast
1:55 PM 44.6 °F - 42.8 °F 93% 30.13 in 7.0 mi Calm Calm - N/A   Overcast
2:55 PM 46.4 °F 43.5 °F 42.8 °F 87% 30.10 in 7.0 mi SSW 5.8 mph - N/A   Overcast
3:55 PM 48.2 °F - 42.8 °F 82% 30.07 in 7.0 mi SSW 5.8 mph - N/A   Overcast
4:55 PM 48.2 °F - 44.6 °F 87% 30.05 in 7.0 mi SW 6.9 mph - N/A   Overcast
5:55 PM 48.2 °F - 44.6 °F 87% 30.04 in 7.0 mi SW 6.9 mph - N/A   Overcast
6:52 PM 50.0 °F - 44.6 °F 82% 30.03 in 7.0 mi SSW 5.8 mph - N/A   Mostly Cloudy
7:51 PM 48.2 °F - 42.8 °F 82% 30.03 in 10.0 mi Calm Calm - N/A   Clear
10:15 PM 39.2 °F - 37.4 °F 93% 30.03 in 1.8 mi Calm Calm - N/A   Scattered Clouds
10:35 PM 41.0 °F - 39.2 °F 93% 30.03 in 2.5 mi Calm Calm - N/A   Mostly Cloudy
10:55 PM 41.0 °F - 39.2 °F 93% 30.03 in 2.0 mi Calm Calm - N/A   Mostly Cloudy
11:15 PM 39.2 °F - 37.4 °F 93% 30.03 in 1.0 mi Calm Calm - N/A   Mist
11:35 PM 37.4 °F - 35.6 °F 93% 30.03 in 1.2 mi Calm Calm - N/A   Mist
11:50 PM 37.4 °F - 37.4 °F 100% 30.03 in 1.2 mi Calm Calm - N/A   Mist